DW0152 Weather Reports


time (UTC)temp
C
wind
direction
speed
KPH
gust
KPH
rain 1hr
cm
rain 24hr
cm
rain mn
cm
humidity
%
barometer
mb
20190424175019 12 112 1.6 11.3 0.03 0.20 0.20 84 999.8
20190424174016 13 157 1.6 6.4 0.00 0.18 0.18 84 999.6
20190424173016 13 112 1.6 6.4 0.03 0.18 0.18 83 999.1
20190424172019 13 45 1.6 6.4 0.08 0.18 0.18 83 998.9
20190424171019 13 157 1.6 6.4 0.10 0.18 0.18 82 999.0
20190424170019 13 157 1.6 8.0 0.10 0.18 0.18 81 998.9
20190424165019 13 157 1.6 6.4 0.13 0.18 0.18 81 998.8
20190424164019 13 157 3.2 8.0 0.15 0.18 0.18 79 998.5
20190424163019 14 180 3.2 8.0 0.13 0.15 0.15 78 998.5
20190424162025 15 135 3.2 12.9 0.08 0.10 0.10 76 998.8
20190424161019 16 135 4.8 16.1 0.05 0.08 0.08 69 999.1
20190424160019 16 157 3.2 14.5 0.03 0.05 0.05 70 998.5
20190424155019 17 135 1.6 12.9 0.00 0.03 0.03 68 998.2
20190424154019 18 180 1.6 8.0 0.00 0.00 0.00 62 998.0
20190424153019 18 180 1.6 14.5 0.00 0.00 0.00 60 997.9
20190424152019 18 180 1.6 9.7 0.00 0.00 0.00 61 997.6
20190424151019 18 180 1.6 8.0 0.00 0.00 0.00 61 997.5
20190424150020 18 180 1.6 8.0 0.00 0.00 0.00 62 997.6
20190424145019 18 157 3.2 11.3 0.00 0.00 0.00 65 997.8
20190424144019 18 180 4.8 14.5 0.00 0.00 0.00 67 997.9
20190424143019 18 202 4.8 11.3 0.00 0.00 0.00 70 998.0
20190424142016 18 157 4.8 11.3 0.00 0.00 0.00 72 997.9
20190424141019 18 180 4.8 16.1 0.00 0.00 0.00 66 997.8
20190424140019 21 180 3.2 14.5 0.00 0.00 0.00 50 997.1
20190424135019 22 180 3.2 11.3 0.00 0.00 0.00 43 996.5
20190424134019 23 180 3.2 12.9 0.00 0.00 0.00 40 996.3
20190424133034 23 157 4.8 14.5 0.00 0.00 0.00 40 996.3
20190424132019 23 180 4.8 14.5 0.00 0.00 0.00 39 996.5
20190424131016 24 157 4.8 14.5 0.00 0.00 0.00 39 996.4
20190424130019 23 180 4.8 16.1 0.00 0.00 0.00 41 996.4
20190424125019 23 135 3.2 9.7 0.00 0.00 0.00 43 996.4
20190424124019 23 135 3.2 11.3 0.00 0.00 0.00 41 996.4
20190424123019 22 180 3.2 12.9 0.00 0.00 0.00 43 996.5
20190424122019 23 180 3.2 11.3 0.00 0.00 0.00 41 996.5
20190424121019 23 135 3.2 9.7 0.00 0.00 0.00 41 996.6
20190424120016 23 157 3.2 16.1 0.00 0.00 0.00 41 996.5
20190424115019 22 180 3.2 9.7 0.00 0.00 0.00 41 996.5
20190424114019 23 157 3.2 12.9 0.00 0.00 0.00 40 996.6
20190424113019 23 157 4.8 14.5 0.00 0.00 0.00 40 996.5
20190424112019 23 157 3.2 11.3 0.00 0.00 0.00 43 996.4
20190424111019 23 135 3.2 11.3 0.00 0.00 0.00 45 996.5
20190424110019 23 135 3.2 16.1 0.00 0.00 0.00 44 996.3
20190424105019 22 135 3.2 12.9 0.00 0.00 0.00 45 996.4
20190424104019 22 135 3.2 11.3 0.00 0.00 0.00 47 996.4
20190424103019 21 157 3.2 12.9 0.00 0.00 0.00 49 996.5
20190424102019 21 157 3.2 12.9 0.00 0.00 0.00 51 996.6
20190424101019 21 180 3.2 11.3 0.00 0.00 0.00 50 996.7
20190424100019 21 180 3.2 12.9 0.00 0.00 0.00 50 996.6
20190424095019 20 157 1.6 6.4 0.00 0.00 0.00 52 996.7
20190424094019 21 135 3.2 9.7 0.00 0.00 0.00 53 996.7
20190424093019 21 157 3.2 8.0 0.00 0.00 0.00 53 996.7
20190424092020 21 157 4.8 16.1 0.00 0.00 0.00 52 996.6
20190424091019 21 135 3.2 12.9 0.00 0.00 0.00 53 996.6
20190424090019 20 135 3.2 9.7 0.00 0.00 0.00 56 996.6
20190424085016 20 135 3.2 14.5 0.00 0.00 0.00 56 996.3
20190424084019 20 135 3.2 14.5 0.00 0.00 0.00 57 996.2
20190424083019 20 157 3.2 14.5 0.00 0.00 0.00 57 996.2
20190424082019 20 135 3.2 8.0 0.00 0.00 0.00 59 996.0
20190424081019 19 135 1.6 8.0 0.00 0.00 0.00 59 996.0
20190424080019 19 135 3.2 9.7 0.00 0.00 0.00 61 996.0
20190424075019 18 157 3.2 9.7 0.00 0.00 0.00 60 996.2
20190424074019 18 135 1.6 6.4 0.00 0.00 0.00 61 996.1
20190424073019 18 157 3.2 9.7 0.00 0.00 0.00 63 996.1
20190424072019 18 157 1.6 12.9 0.00 0.00 0.00 65 996.1
20190424071019 17 157 1.6 8.0 0.00 0.00 0.00 67 996.1
20190424070019 17 135 1.6 11.3 0.00 0.00 0.00 68 996.0
20190424065019 17 180 1.6 4.8 0.00 0.00 0.00 69 996.0
20190424064019 16 157 1.6 4.8 0.00 0.00 0.00 70 996.0
20190424063016 16 135 1.6 4.8 0.00 0.00 0.00 71 996.0
20190424062019 15 135 1.6 6.4 0.00 0.00 0.00 73 995.8
20190424061111 14 135 1.6 6.4 0.00 0.00 0.00 76 995.7
20190424060019 13 157 1.6 4.8 0.00 0.00 0.00 79 995.7
20190424055019 13 0.0 6.4 0.00 0.00 0.00 78 995.7
20190424054019 13 0.0 3.2 0.00 0.00 0.00 80 995.5
20190424053019 13 0.0 0.0 0.00 0.00 0.00 82 995.5
20190424052019 13 0.0 0.0 0.00 0.00 0.00 81 995.5
20190424051019 12 0.0 1.6 0.00 0.00 0.00 82 995.4
20190424050019 12 0.0 0.0 0.00 0.00 0.00 83 995.4
20190424045019 12 0.0 3.2 0.00 0.00 0.00 83 995.3
20190424044023 12 0.0 0.0 0.00 0.00 0.00 84 995.5
20190424043019 12 0.0 0.0 0.00 0.00 0.00 84 995.4
20190424042019 12 0.0 0.0 0.00 0.00 0.00 85 995.4
20190424041019 12 0.0 0.0 0.00 0.00 0.00 84 995.4
20190424040019 12 0.0 0.0 0.00 0.00 0.00 83 995.3
20190424035019 12 0.0 0.0 0.00 0.00 0.00 83 995.3
20190424034019 12 0.0 4.8 0.00 0.00 0.00 83 995.3
20190424033019 12 0.0 3.2 0.00 0.00 0.00 84 995.4
20190424032019 12 0.0 1.6 0.00 0.00 0.00 85 995.5
20190424031024 12 0.0 0.0 0.00 0.00 0.00 86 995.4
20190424030019 11 0.0 0.0 0.00 0.00 0.00 86 995.3
20190424025019 12 0.0 0.0 0.00 0.00 0.00 84 995.4
20190424024019 12 0.0 0.0 0.00 0.00 0.00 85 995.4
20190424023019 12 0.0 3.2 0.00 0.00 0.00 85 995.4
20190424022019 11 0.0 0.0 0.00 0.00 0.00 86 995.3
20190424021019 11 0.0 0.0 0.00 0.00 0.00 88 995.4
20190424020015 11 0.0 0.0 0.00 0.00 0.00 87 995.5
20190424015019 11 0.0 0.0 0.00 0.00 0.00 86 995.2
20190424014019 11 0.0 0.0 0.00 0.00 0.00 85 995.2
20190424013019 11 0.0 0.0 0.00 0.00 0.00 85 995.1
20190424012019 11 0.0 0.0 0.00 0.00 0.00 85 995.2
20190424011019 11 0.0 0.0 0.00 0.00 0.00 84 995.0
20190424010019 12 0.0 0.0 0.00 0.00 0.00 83 995.2
20190424005019 12 0.0 0.0 0.00 0.00 0.00 82 995.2
20190424004019 11 0.0 0.0 0.00 0.00 0.00 84 995.1
20190424003019 12 0.0 0.0 0.00 0.00 0.00 81 995.1
20190424002019 11 0.0 0.0 0.00 0.00 0.00 82 995.1
20190424001019 12 0.0 0.0 0.00 0.00 0.00 80 995.1
20190424000019 12 0.0 0.0 0.00 0.00 0.00 79 995.0
20190423235019 12 0.0 0.0 0.00 0.00 0.00 78 995.0
20190423234018 12 0.0 0.0 0.00 0.00 0.00 79 995.0
20190423233019 12 0.0 0.0 0.00 0.00 0.00 78 994.9
20190423232019 13 0.0 0.0 0.00 0.00 0.00 77 994.9
20190423231024 13 0.0 0.0 0.00 0.00 0.00 75 995.0
20190423230019 13 0.0 0.0 0.00 0.00 0.00 74 994.9
20190423225018 14 0.0 0.0 0.00 0.00 0.00 73 995.0
20190423224016 13 0.0 0.0 0.00 0.00 0.00 73 995.0
20190423223019 14 0.0 0.0 0.00 0.00 0.00 72 995.1
20190423222019 14 0.0 0.0 0.00 0.00 0.00 71 995.1
20190423221018 14 0.0 0.0 0.00 0.00 0.00 71 994.9
20190423220019 14 0.0 0.0 0.00 0.00 0.00 71 995.0
20190423215020 14 0.0 0.0 0.00 0.00 0.00 71 994.8
20190423214020 14 0.0 0.0 0.00 0.00 0.00 70 994.9
20190423213020 15 0.0 0.0 0.00 0.00 0.00 70 994.8
20190423212020 15 0.0 0.0 0.00 0.00 0.00 69 994.7
20190423211020 15 0.0 0.0 0.00 0.00 0.00 67 994.9
20190423210020 15 0.0 0.0 0.00 0.00 0.00 66 994.7
20190423205020 16 0.0 1.6 0.00 0.00 0.00 65 994.7
20190423204020 16 0.0 3.2 0.00 0.00 0.00 65 994.7
20190423203017 16 0.0 3.2 0.00 0.00 0.00 64 994.7
20190423202020 16 0.0 3.2 0.00 0.00 0.00 61 994.6
20190423201020 17 0.0 3.2 0.00 0.00 0.00 59 994.5
20190423200036 17 0.0 4.8 0.00 0.00 0.00 59 994.5
20190423195017 17 0.0 4.8 0.00 0.00 0.00 59 994.4
20190423194018 17 0.0 3.2 0.00 0.00 0.00 59 994.4
20190423193020 17 0.0 3.2 0.00 0.00 0.00 59 994.3
20190423192020 17 0.0 3.2 0.00 0.00 0.00 58 994.3
20190423191020 17 0.0 4.8 0.00 0.00 0.00 57 994.3
20190423190018 17 0.0 3.2 0.00 0.00 0.00 56 994.3
20190423185020 18 0.0 4.8 0.00 0.00 0.00 55 994.3
20190423184020 18 0.0 3.2 0.00 0.00 0.00 55 994.2
20190423183020 18 0.0 4.8 0.00 0.00 0.00 54 994.1
20190423182019 18 0.0 4.8 0.00 0.00 0.00 53 994.2
20190423181020 18 0.0 4.8 0.00 0.00 0.00 52 994.1
20190423180020 19 0.0 3.2 0.00 0.00 0.00 52 994.1